Norfolk, NE

7:19 PM CST on November 20, 2019 (GMT -0600)
Stefan Memorial

Weather History for KOFK - October, 2019

Change the Weather History Date:

Monday, October 21, 2019

  Actual Average Record
Temperature  
Mean Temperature 42 °F 49 °F  
Max Temperature 49 °F 61 °F 88 °F (1947)
Min Temperature 35 °F 37 °F 15 °F (1987)
Degree Days  
Heating Degree Days 23 16  
Month to date heating degree days 313 260  
Since 1 July heating degree days 343 402  
Cooling Degree Days 0 0  
Month to date cooling degree days 0 8  
Year to date cooling degree days 949 914  
Moisture  
Dew Point 40 °F    
Average Humidity 81    
Maximum Humidity 92    
Minimum Humidity 70    
Precipitation  
Precipitation 0.21 in 0.06 in 1.32 in (1900)
Month to date precipitation 1.92 1.55  
Year to date precipitation 23.95 24.77  
Snow  
Snow 0.00 in 0.00 in - ()
Month to date snowfall T 0.3  
Since 1 July snowfall T 0.3  
Since 1 September snowfall T 0.3  
Snow Depth 0.00 in    
Sea Level Pressure  
Sea Level Pressure 29.50 in    
Wind  
Wind Speed 18 mph (WNW)    
Max Wind Speed 31 mph    
Max Gust Speed 52 mph    
Visibility 9 miles    
Events Rain    
T = Trace of Precipitation, MM = Missing Value Source: NWS Daily Summary

Daily Weather History Graph

Daily Weather History Graph

Search for Another Location

Airport or City:

Astronomy

Oct. 21, 2019 Rise Set
Actual Time 7:48 AM CDT 6:39 PM CDT
Civil Twilight 7:20 AM CDT 7:07 PM CDT
Nautical Twilight 6:47 AM CDT 7:39 PM CDT
Astronomical Twilight 6:15 AM CDT 8:12 PM CDT
Moon No Moon Rise 3:11 PM CDT
Length of Visible Light 11h 46m
Length of Day
10h 50m
Waning Gibbous, 48% of the Moon is Illuminated
Oct 21
Waning Gibbous
Oct 27
New
Nov 4
First Quarter
Nov 12
Full
Nov 19
Last Quarter

Hourly Weather History & Observations

Time (CDT) Temp. Windchill Dew Point Humidity Pressure Visibility Wind Dir Wind Speed Gust Speed Precip Events Conditions
12:56 AM 42.1 °F 39.2 °F 37.0 °F 82% 29.45 in 10.0 mi South 4.6 mph - N/A   Clear
1:56 AM 39.9 °F 33.9 °F 35.1 °F 83% 29.43 in 10.0 mi SSW 9.2 mph - N/A   Clear
2:56 AM 37.9 °F 32.7 °F 32.0 °F 79% 29.42 in 10.0 mi SW 6.9 mph - N/A   Clear
3:56 AM 39.0 °F 31.4 °F 33.1 °F 79% 29.40 in 10.0 mi WSW 12.7 mph - N/A   Clear
4:56 AM 39.9 °F 32.9 °F 36.0 °F 86% 29.40 in 10.0 mi WNW 11.5 mph - N/A   Mostly Cloudy
5:56 AM 44.1 °F 37.4 °F 39.9 °F 85% 29.39 in 10.0 mi WNW 13.8 mph - N/A   Overcast
6:44 AM 42.1 °F 34.5 °F 37.9 °F 85% 29.38 in 10.0 mi West 15.0 mph - N/A   Overcast
6:56 AM 41.0 °F 32.2 °F 37.9 °F 89% 29.38 in 10.0 mi West 18.4 mph 25.3 mph N/A   Overcast
7:56 AM 41.0 °F 33.5 °F 37.9 °F 89% 29.38 in 10.0 mi West 13.8 mph - N/A   Overcast
8:56 AM 42.1 °F 34.9 °F 39.0 °F 89% 29.38 in 10.0 mi West 13.8 mph - N/A   Overcast
9:11 AM 43.0 °F 35.7 °F 39.0 °F 86% 29.38 in 10.0 mi WNW 15.0 mph - N/A   Overcast
9:56 AM 44.1 °F 37.1 °F 41.0 °F 89% 29.40 in 10.0 mi WNW 15.0 mph 24.2 mph N/A   Overcast
10:56 AM 46.0 °F 40.2 °F 44.1 °F 93% 29.42 in 10.0 mi WNW 12.7 mph 24.2 mph 0.03 in Rain Light Rain
11:21 AM 48.0 °F - 45.0 °F 89% 29.42 in 10.0 mi NW 16.1 mph - 0.01 in Rain Light Rain
11:28 AM 46.9 °F - 44.1 °F 90% 29.42 in 7.0 mi WNW 16.1 mph - 0.01 in Rain Light Rain
11:34 AM 46.0 °F 37.4 °F 43.0 °F 89% 29.42 in 2.5 mi NW 25.3 mph 35.7 mph 0.02 in Rain Rain
11:40 AM 46.0 °F 38.5 °F 41.0 °F 83% 29.44 in 1.5 mi NW 19.6 mph 41.4 mph 0.04 in Rain Heavy Rain
11:49 AM 45.0 °F 39.7 °F 42.1 °F 90% 29.44 in 2.5 mi NW 10.4 mph 26.5 mph 0.08 in Rain Rain
11:56 AM 45.0 °F 39.3 °F 42.1 °F 90% 29.45 in 2.0 mi WNW 11.5 mph 21.9 mph 0.10 in Rain Heavy Rain
12:02 PM 45.0 °F 37.9 °F 42.1 °F 90% 29.43 in 3.0 mi West 16.1 mph 24.2 mph 0.03 in Rain Light Rain
12:56 PM 46.0 °F 38.5 °F 43.0 °F 89% 29.46 in 10.0 mi West 19.6 mph 32.2 mph 0.04 in   Overcast
1:56 PM 48.0 °F - 45.0 °F 89% 29.47 in 9.0 mi West 24.2 mph 33.4 mph 0.01 in Rain Light Rain
2:14 PM 48.0 °F - 43.0 °F 83% 29.45 in 10.0 mi West 24.2 mph 36.8 mph 0.00 in   Overcast
2:56 PM 48.0 °F - 43.0 °F 83% 29.49 in 10.0 mi WNW 24.2 mph 39.1 mph 0.00 in Rain Light Rain
3:56 PM 46.0 °F 37.0 °F 41.0 °F 83% 29.54 in 9.0 mi WNW 27.6 mph 39.1 mph 0.00 in Rain Light Rain
4:56 PM 45.0 °F 36.9 °F 41.0 °F 86% 29.59 in 9.0 mi WNW 20.7 mph 36.8 mph 0.01 in Rain Light Rain
5:56 PM 44.1 °F 35.4 °F 39.9 °F 85% 29.63 in 10.0 mi WNW 21.9 mph 40.3 mph 0.01 in Rain Light Rain
6:56 PM 44.1 °F 34.6 °F 39.0 °F 82% 29.68 in 10.0 mi WNW 26.5 mph 42.6 mph 0.00 in Rain Light Rain
7:56 PM 43.0 °F 33.8 °F 39.0 °F 86% 29.72 in 10.0 mi WNW 23.0 mph 33.4 mph 0.01 in Rain Light Rain
8:56 PM 44.1 °F 34.6 °F 39.0 °F 82% 29.74 in 10.0 mi WNW 26.5 mph 40.3 mph 0.00 in   Overcast
9:56 PM 44.1 °F 35.7 °F 37.9 °F 79% 29.76 in 10.0 mi NW 20.7 mph 36.8 mph N/A   Overcast
10:39 PM 44.1 °F 35.9 °F 36.0 °F 73% 29.75 in 10.0 mi WNW 19.6 mph 36.8 mph N/A   Overcast
10:56 PM 44.1 °F 35.7 °F 35.1 °F 71% 29.78 in 10.0 mi NW 20.7 mph 49.5 mph N/A   Overcast
11:56 PM 43.0 °F 33.8 °F 34.0 °F 71% 29.80 in 10.0 mi WNW 23.0 mph 33.4 mph N/A   Overcast